Location: Lalanga
(4.5882°N, 32.9072°E)
Time: 05:10:18
(UTC+00:00)

ASTRO E2 - Pass Details

Date: 24 January 2020
Orbit: 510 x 517 km, 31.4° (Epoch: 19 February)

Event Time Altitude Azimuth Distance (km) Brightness Sun altitude
Rises 17:36:52 0° 288° (WNW) 2,598 7.1 -24.3°
Reaches altitude 10° 17:39:15 10° 278° (W) 1,713 6.2 -24.8°
Maximum altitude 17:42:47 32° 214° (SW) 889 4.3 -25.7°
Enters shadow 17:43:29 30° 192° (SSW) 935 4.2 -25.8°
